Regional Weather Roundup
Issued by NWS Newport/Morehead, NC

Current Version | Previous Version | Graphics & Text | Print | Product List | Glossary Off
Versions: 1 2 3 4 5 6 7 8 9 10 11 12 13 14 15 16 17 18 19 20 21 22 23 24 25 26 27 28 29 30 31 32 33 34 35 36 37 38 39 40 41 42 43 44 45 46 47 48 49 50

165
ASUS42 KMHX 131013
RWRMHX
WEATHER ROUNDUP FOR EASTERN NORTH CAROLINA
NATIONAL WEATHER SERVICE NEWPORT/MOREHEAD CITY NC
500 AM EST SAT FEB 13 2016

NOTE: "FAIR" INDICATES FEW OR NO CLOUDS BELOW 12,000 FEET
WITH NO SIGNIFICANT WEATHER AND/OR OBSTRUCTIONS TO VISIBILITY

NCZ015>017-031-032-045>047-102-103-131100-
NORTH COAST

CITY           SKY/WX    TMP DP  RH WIND       PRES   REMARKS
EDENTON        CLOUDY    30  25  83 N5        30.08R
ELIZABETH CITY CLOUDY    25  22  88 W6        30.07R
KITTY HAWK     NOT AVBL
MANTEO         NOT AVBL

$$

NCZ045>047-081-094-103-104-131100-
CENTRAL COAST

CITY           SKY/WX    TMP DP  RH WIND       PRES   REMARKS
FRISCO         CLEAR     33  27  78 NW8G18    30.05R
SWANQUARTER      N/A     30 N/A N/A NW3       30.03S

$$

NCZ095-097-098-100-101-131100-
SOUTHERN COAST

CITY           SKY/WX    TMP DP  RH WIND       PRES   REMARKS
BEAUFORT       CLEAR     33  27  78 NW10      30.09R
CEDAR ISLAND     N/A     34 N/A N/A W8G22     30.12R
JACKSONVILLE   CLEAR     29  27  92 W5        30.10R FOG
PINEY ISLAND   SUNNY    N/A N/A N/A NW10      30.08R
WILMINGTON     CLEAR     30  27  88 NW5       30.11R


$$

NCZ011>013-027>030-043-044-078>080-089-090>093-098-131100-
COASTAL PLAIN

CITY           SKY/WX    TMP DP  RH WIND       PRES   REMARKS
AHOSKIE        NOT AVBL
CLINTON        CLEAR     28  28 100 CALM      30.10R FOG
ELIZABETHTOWN  CLEAR     26  26 100 CALM      30.10R FOG
GOLDSBORO      CLEAR     27  27 100 W5        30.08R
GREENVILLE     CLEAR     28  27  93 CALM      30.10R
HAVELOCK       MOCLDY    31  27  85 NW7       30.09R FOG
KENANSVILLE    CLEAR     27  27  99 CALM      30.10R FOG
KINSTON        CLEAR     28  27  96 CALM      30.09R
NEW BERN       CLEAR     30  26  85 W7        30.10R
RICHLANDS      CLEAR     28  21  74 CALM      30.10R
ROCKY MOUNT    PTCLDY    29  21  72 NW5       30.09R
WASHINGTON     CLEAR     26  24  93 CALM      30.08R
WHITEVILLE     CLEAR     29  27  94 CALM      30.09R FOG

$$

AMZ130-135-150-152-154-156-158-170-250-252-270-ANZ085-086-088-633-658-670-131100-
MARINE OBSERVATIONS

STATION/POSITION TIME  TEMP    WIND        PRES    WAVE   SWELL
                       AIR SEA DIR/SP/G            HT/PER HT/PER
                 (UTC) (F)     (DEG/KT/KT) (MB)    (FT/S) (FT/S)
CHESAPEAKE LIGHT 1000   31     350/ 17/ 19 1017.7
64 E VA BEACH    0950   35 48  340/ 21/ 27 1015.7    5/ 5
DUCK             0900   29     310/ 13/ 19 1015.8
2 E DUCK         0911      42                N/A     2/ 3
OREGON INLET     0900   31 40  310/  9/ 11 1016.8
13E OREGON INLT  1000      44                N/A     4/ 5   2/11
HATTERAS CG      0900   35 45  310/ 19/ 22 1016.3
DIAMOND BUOY     0950   40 71  330/ 21/ 25 1016.8    5/ 9   3/ 9
CAPE LOOKOUT     NOT AVBL
BEAUFORT LAB     0900   34 43  330/  7/ 11 1016.6
30 SE NEW RVR IN 0908   44 62              1016.7
30 SE NEW RVR IN 0925      61                N/A     5/ 4
27 SE WRIGHTSVLE 0908   39 59  360/ 17/ 25 1016.7
5 SE WRIGHTSVLE  0908   37 50  320/ 14/ 19 1018.4
225 S CAPE HAT   0950   60 68  330/ 17/ 23   N/A    11/10   8/10
41 SE CHARLESTON 0950   49 67  330/ 17/ 23 1018.6    4/ 6   2/ 9

$$




USA.gov is the U.S. government's official web portal to all federal, state and local government web resources and services.